Tracking 29892 objects as of 21-Nov-2024
HD Live streaming from Space Station
objects crossing your sky now

SL-12 R/B(2)

Track SL-12 R/B(2) now!


NORAD ID: 19076
Int'l Code: 1988-034D
Perigee: 35,727.8 km
Apogee: 35,943.2 km
Inclination: 12.0 °
Period: 1,438.2 minutes
Semi major axis: 42206 km
RCS: 2.2161 m2 (large)
Launch date: April 26, 1988
Source: Commonwealth of Independent States (former USSR) (CIS)
Launch site: TYURATAM MISSILE AND SPACE COMPLEX (TTMTR)

Note: This is a ROCKET BODY
Your satellite tracking list
Your tracking list is empty




NASA's NSSDC Master Catalog

Two Line Element Set (TLE):
1 19076U 88034D   24325.27369285 -.00000064  00000-0  00000-0 0  9995
2 19076  12.0478 331.4576 0025513 178.8285 179.3885  1.00123119133355
Source of the keplerian elements: AFSPC